Location: ??
(35.5052°N, 139.7262°E)
Time: 00:35:29
(UTC+00:00)

Cosmos 1606 - Pass Details

Date: 20 June 2021
Orbit: 501 x 527 km, 82.5° (Epoch: 05 August)

Event Time Altitude Azimuth Distance (km) Brightness Sun altitude
Rises 16:50:15 0° 342° (NNW) 2,638 6.9 -23.8°
Reaches altitude 10° 16:52:33 10° 332° (NNW) 1,742 5.7 -23.5°
Enters shadow 16:54:27 23° 310° (NW) 1,122 4.4 -23.3°
